SCP
-0 -0 -0 -0 -0 -0 -0 -0 -0 -0 -0 -0 -0 -0 -0 -0 -0 0 0 0 0 -0 -0 -0 -0 0 0 0 0 0 0 -0 0 0 0 0 0 0 0 0 0 0 0 -0 -0 0 0
-0 -0 -0 -0 -0 -0 -0 -0 -0 -0 -0 -0 -0 -0 -0 -0 -0 -0 0 0 0 -0 -0 -0 -0 0 0 0 0 0 0 0 0 0 0 0 0 0 0 0 0 0 0 0 0 0 0
-0 -0 -0 -0 -0 -0 -0 -0 -0 -0 -0 -0 -0 -0 -0 0 0 -0 0 -0 0 -0 -0 -0 -0 0 0 0 0 0 0 0 0 0 0 0 0 0 0 0 0 -0 0 0 0 0 0
-0 -0 -0 -0 -0 -0 -0 -0 -0 0 0 0 0 0 0 0 0 0 0 0 0 -0 0 -0 -0 0 0 0 0 0 0 0 0 0 0 0 0 0 0 0 0 -0 -0 -0 0 0 0
-0 -0 -0 -0 -0 -0 -0 -0 -0 0 0 0 0 0 0 0 0 0 0 0 -0 0 0 -0 0 0 0 0 0 0 0 0 0 0 0 0 0 0 0 0 0 0 0 -0 0 0 0
-0 -0 -0 -0 0 0 0 0 0 0 0 0 0 0 0 0 0 0 0 0 -0 0 0 -0 0 0 0 0 0 0 0 0 0 0 0 0 0 0 0 0 0 0 0 0 0 0 0
0 0 0 0 0 0 0 0 0 0 0 0 0 0 0 0 0 0 0 -0 -0 0 0 -0 -0 -0 0 0 0 0 0 0 0 0 0 0 0 0 -0 0 0 0 0 0 0 0 0
0 0 0 0 0 0 0 0 0 0 0 0 0 0 0 0 0 0 0 -0 -0 0 0 0 0 -0 0 0 0 0 0 0 0 0 0 0 0 0 0 0 0 0 0 0 -0 0 0
0 0 0 0 0 0 0 0 0 0 0 0 0 0 0 0 0 0 0 0 0 0 0 0 0 0 0 0 0 0 0 0 0 0 0 0 0 0 0 0 0 0 0 0 0 0 0
0 0 0 0 0 0 0 0 0 0 0 0 0 0 0 0 0 0 0 0 0 0 0 0 0 0 -0 -0 0 0 0 0 0 0 0 0 0 0 0 0 0 0 0 0 0 0 0
0 0 0 0 0 0 0 0 0 0 0 0 0 0 0 0 0 0 0 0 0 0 0 0 0 0 -0 -0 0 0 0 0 0 0 0 0 0 0 0 0 0 0 0 0 0 0 0
0 0 0 0 0 0 0 0 0 0 0 0 0 0 0 0 0 0 0 0 0 0 0 0 0 0 -0 -0 -0 -0 -0 -0 -0 0 0 0 0 0 0 0 0 0 0 0 0 0 -0
0 0 0 0 0 0 0 0 0 0 0 0 0 0 0 0 0 0 0 0 0 0 0 0 0 -0 -0 -0 -0 -0 -0 -0 -0 0 0 0 0 0 0 0 0 0 0 0 0 0 -0
0 0 0 0 0 0 0 0 0 0 0 0 0 0 0 0 0 0 0 0 0 0 0 0 -0 -0 -0 -0 -0 -0 -0 -0 -0 -0 -0 0 0 0 0 0 0 0 0 0 0 0 0
0 0 0 0 0 0 0 0 0 0 0 0 0 0 0 0 0 0 0 0 0 0 0 0 0 0 -0 -0 -0 -0 -0 -0 -0 0 0 0 0 0 0 0 0 0 0 0 0 0 0
0 0 0 0 0 0 0 0 0 0 0 0 0 0 0 0 0 0 0 0 0 0 0 0 0 0 0 -0 0 0 -0 0 -0 0 0 0 -0 0 0 0 0 0 0 0 0 0 0
0 0 0 0 0 0 0 0 0 0 0 0 0 0 0 0 0 0 0 0 0 0 0 0 0 0 0 0 0 0 -0 -0 -0 -0 0 0 0 0 0 0 0 0 0 0 0 0 0
0 0 0 0 0 0 0 0 0 0 0 0 0 0 0 0 0 0 0 0 0 0 0 0 0 0 0 0 0 0 -0 -0 -0 -0 -0 0 0 0 0 0 0 0 0 0 0 0 0
0 0 0 0 0 0 0 0 0 0 0 0 0 0 0 0 0 0 0 0 0 0 0 0 0 0 0 0 0 0 -0 -0 -0 -0 -0 0 0 0 0 0 0 0 0 0 0 0 0
0 0 0 0 0 0 0 0 0 0 0 0 0 0 0 0 0 0 0 0 0 0 0 0 0 0 0 0 0 0 0 -0 -0 -0 -0 -0 0 0 0 0 0 0 0 0 0 0 0
0 0 0 0 0 0 0 0 0 0 0 0 0 0 0 0 0 0 0 0 0 0 0 0 0 0 0 0 0 0 -0 0 -0 -0 -0 -0 0 0 0 0 0 0 0 0 0 0 0
0 0 0 0 0 0 0 0 0 0 0 0 0 0 0 0 0 0 0 0 0 0 0 0 0 0 0 0 0 0 0 0 -0 -0 -0 0 0 0 0 0 0 0 0 0 0 0 0
0 0 0 0 0 0 0 0 0 0 0 0 0 0 0 0 0 0 0 0 0 0 0 0 0 0 0 0 0 -0 -0 -0 -0 -0 0 0 0 0 0 0 0 0 0 0 0 0 0
0 0 0 0 0 0 0 0 0 0 0 0 0 0 0 0 0 0 0 0 0 0 0 0 0 0 0 -0 -0 -0 0 -0 -0 0 0 0 0 0 0 0 0 0 0 0 0 0 0
0 0 0 0 0 0 0 0 0 0 0 0 0 0 0 0 0 0 0 0 0 0 0 0 0 0 0 0 -0 0 0 0 -0 -0 0 0 0 0 0 0 0 0 0 0 0 0 0
0 0 0 0 0 0 0 0 0 0 0 0 0 0 0 0 0 0 0 0 0 0 0 0 0 0 -0 -0 -0 0 0 0 -0 0 0 0 0 0 0 0 0 0 0 0 0 0 0
-0 0 0 0 0 0 0 0 0 0 0 0 0 0 0 0 0 0 0 0 0 0 0 0 0 0 -0 -0 0 0 0 0 0 0 0 0 0 0 0 0 0 0 0 0 0 0 0
0 0 0 0 0 0 0 0 0 0 0 0 0 0 0 0 0 0 0 0 0 0 0 0 0 0 -0 -0 0 0 0 0 0 0 0 0 0 0 0 0 0 0 0 0 0 0 0
0 0 0 0 0 0 0 0 0 0 0 0 0 0 0 0 0 0 0 0 0 0 0 0 0 0 0 0 0 0 0 0 0 0 0 0 0 0 0 0 0 0 0 0 0 0 0
Wind_Speed_500mb
37 39 40 40 42 43 45 47 47 50 52 54 55 54 54 53 51 49 42 42 45 44 61 52 42 29 21 15 27 14 16 4 65 67 70 66 62 35 16 19 16 32 28 18 44 40 36
38 39 40 41 44 46 48 51 55 58 59 58 57 57 54 53 53 50 41 40 45 57 43 42 39 27 13 8 7 11 32 7 56 73 74 72 49 51 26 8 32 12 38 42 39 42 24
39 39 41 42 45 48 49 51 54 57 61 65 65 62 57 54 54 49 40 42 50 57 34 36 51 30 20 34 12 6 15 18 44 70 80 78 25 49 17 3 51 34 21 17 25 36 10
36 37 38 40 42 45 48 53 57 61 64 67 71 70 63 57 55 52 41 45 51 42 30 38 52 18 18 16 7 12 16 20 34 66 63 66 48 61 12 9 14 6 11 6 18 18 22
36 38 41 42 44 48 53 57 60 63 64 65 70 71 67 63 57 52 43 49 50 29 28 51 23 18 16 18 42 25 38 30 36 48 65 29 59 13 18 4 9 5 7 11 12 24 12
37 39 42 43 45 48 52 56 60 60 61 65 68 73 68 66 60 48 47 54 43 21 36 21 24 13 22 54 53 33 33 21 39 37 41 20 27 9 4 9 21 11 9 9 13 10 26
36 37 38 41 47 50 51 52 56 62 66 67 66 69 71 66 58 36 46 43 40 8 49 16 35 12 37 54 29 31 22 6 31 32 14 28 11 38 57 40 8 8 9 11 10 16 15
35 37 41 44 45 48 53 57 59 62 66 70 71 70 72 69 50 22 31 34 30 22 25 15 17 10 49 44 13 57 42 8 19 15 13 10 36 42 15 14 25 17 11 12 21 11 11
36 39 41 42 44 48 53 58 62 65 69 73 74 73 73 67 31 23 21 33 33 43 6 21 11 35 59 33 8 24 71 23 10 20 27 26 11 30 24 27 26 32 30 16 18 10 7
38 40 42 42 45 50 54 58 62 68 70 71 70 72 70 50 11 26 20 34 46 19 8 11 18 24 49 12 14 39 50 14 10 18 29 29 41 27 39 35 30 35 27 28 26 3 8
39 40 42 43 46 50 54 59 63 65 69 70 69 72 56 22 20 26 33 41 25 0 5 9 10 24 27 29 25 37 41 17 5 19 11 34 26 35 40 44 36 27 15 19 20 6 6
39 41 43 45 48 52 57 61 65 65 69 70 67 63 37 21 21 29 38 44 3 9 8 3 9 17 20 37 16 30 32 31 10 12 29 32 31 31 50 29 32 10 11 11 2 4 21
42 43 45 47 50 54 59 63 66 68 69 69 66 48 26 17 25 34 43 19 8 5 11 9 6 13 9 17 14 22 27 33 15 19 14 19 48 30 19 38 25 21 18 5 11 12 29
45 46 47 49 51 55 60 64 67 70 69 68 62 26 14 23 22 31 38 10 7 5 2 6 9 10 10 19 8 16 12 7 27 11 6 10 27 43 28 26 35 30 24 12 18 14 25
44 46 47 50 52 54 58 63 66 68 67 69 60 21 8 19 28 25 21 7 8 3 7 9 11 5 6 3 4 16 10 4 12 27 12 11 17 25 44 30 36 18 42 17 10 3 5
45 46 48 50 52 53 56 60 63 65 65 64 65 30 0 20 29 18 8 10 5 6 8 4 2 4 8 8 7 10 5 4 6 22 28 5 17 18 24 52 33 29 20 23 7 18 19
45 45 46 49 51 52 54 56 59 63 64 59 50 17 13 37 38 3 7 11 5 2 11 3 3 5 6 3 5 6 8 9 12 16 13 12 11 23 15 23 57 22 22 16 13 8 21
42 43 44 47 50 51 52 55 58 59 61 56 33 7 23 32 13 7 5 13 9 4 7 4 3 9 4 6 7 9 10 7 11 12 6 6 10 14 20 24 34 48 15 15 26 26 2
42 44 44 46 50 51 51 53 53 50 51 52 34 15 19 20 7 8 16 11 7 5 7 4 5 9 6 9 5 9 12 10 10 5 0 3 5 11 14 6 10 6 35 18 13 11 21
42 43 44 47 49 50 51 50 48 44 39 40 14 7 11 16 16 6 8 9 8 18 7 10 10 8 4 8 12 9 9 9 12 14 22 14 7 14 10 3 11 15 18 18 21 14 16
41 42 46 47 48 50 50 50 45 41 34 27 6 2 4 8 4 5 7 9 14 11 13 19 7 7 7 10 9 12 13 9 14 11 4 6 12 14 32 41 36 36 37 33 15 21 28
39 44 48 49 51 51 50 48 44 36 31 15 8 7 4 16 12 10 6 4 15 11 7 8 9 32 25 15 18 14 14 11 15 18 7 9 8 9 14 25 36 18 23 27 31 15 12
40 44 49 53 54 53 50 46 38 26 20 11 7 14 9 8 5 4 4 6 13 26 15 16 16 26 18 18 29 38 37 42 19 19 16 10 6 6 11 8 2 8 19 17 9 25 6
43 48 53 55 55 53 50 42 32 20 17 21 19 21 6 6 8 6 13 34 27 19 16 31 39 10 19 44 60 44 46 44 37 34 33 8 3 6 9 10 13 15 21 18 42 38 37
47 52 57 58 55 48 42 34 28 18 18 23 26 23 9 6 12 16 22 19 31 29 16 24 38 26 44 30 8 7 3 6 26 34 30 19 4 8 4 6 13 10 23 21 12 31 39
52 57 59 56 46 39 35 32 30 19 17 20 25 23 22 7 7 15 14 21 10 6 9 12 28 30 13 4 5 5 5 3 11 8 16 9 16 6 7 1 5 11 40 63 21 27 38
57 58 52 43 39 38 38 36 31 19 13 16 21 15 17 10 17 15 8 10 7 7 6 13 21 15 16 4 5 5 4 7 5 9 10 4 4 16 17 1 4 24 45 29 14 5 47
54 48 44 44 44 43 40 34 22 12 8 9 12 14 16 9 20 19 25 23 10 9 4 14 13 6 9 10 6 6 5 5 5 6 6 8 6 3 2 9 4 39 18 15 5 21 42
44 44 45 45 46 43 36 26 16 7 2 0 3 11 13 22 16 23 22 19 17 19 13 11 13 7 8 7 7 6 5 8 17 7 12 10 7 8 13 4 13 8 20 23 32 32 52
Wind_Direction_500mb
35 32 30 27 25 23 21 18 15 13 9 5 1 358 357 355 353 353 352 351 341 340 336 323 317 318 309 262 256 259 257 204 179 183 187 180 179 186 186 198 220 234 256 260 241 255 242
34 31 28 25 23 21 19 18 16 13 9 5 1 357 356 354 349 349 350 346 344 344 349 2 338 314 286 255 283 259 219 252 193 185 186 187 190 183 207 225 196 200 245 257 269 266 235
30 27 26 23 20 18 16 14 10 8 6 5 5 360 357 354 346 346 346 343 341 337 332 337 344 312 269 264 228 143 191 227 201 194 190 196 190 183 195 105 254 257 278 297 270 261 235
28 25 24 22 18 14 9 6 4 2 2 3 1 0 358 355 346 340 340 343 342 334 327 331 335 319 267 341 326 268 269 223 204 200 205 202 194 200 198 292 334 180 158 204 248 210 207
24 23 21 18 14 9 6 2 359 358 356 356 356 354 357 357 349 339 338 344 341 337 340 336 354 326 314 13 5 320 333 246 213 210 205 221 203 211 224 232 352 296 210 183 278 199 180
21 19 18 14 10 6 2 359 357 356 354 352 353 349 352 355 350 340 339 342 342 321 344 357 0 328 356 324 337 318 357 182 190 195 206 215 190 173 156 152 214 202 204 212 216 218 196
18 16 12 9 6 2 358 358 359 359 356 352 351 348 346 351 350 340 343 7 16 352 336 303 313 267 335 346 5 1 343 232 190 163 166 201 188 203 209 209 188 187 203 215 250 198 174
13 10 7 4 0 359 358 359 359 359 355 351 350 346 339 347 347 344 353 46 29 342 308 357 40 306 2 355 339 14 1 340 197 191 156 147 218 221 212 187 216 244 245 250 286 212 178
5 2 360 360 359 357 357 356 355 357 356 350 349 345 336 344 345 355 19 14 357 341 257 293 5 21 5 341 18 17 12 337 269 217 194 206 228 199 205 204 200 221 223 221 235 57 215
358 357 355 355 355 355 354 352 352 353 353 349 349 344 338 348 15 351 21 356 343 337 63 289 2 21 5 18 358 9 358 354 312 235 217 227 235 208 193 217 197 220 212 225 244 134 218
352 351 350 350 349 348 348 348 349 349 348 347 350 344 343 358 17 5 347 347 334 59 327 19 20 7 37 48 299 346 8 341 231 276 288 221 200 221 211 210 199 230 167 204 237 200 298
344 344 345 344 343 342 344 344 345 345 345 346 350 343 348 357 348 352 352 340 127 47 242 67 64 351 20 27 22 348 11 9 356 307 266 249 267 211 225 221 216 164 169 194 129 130 253
336 337 338 338 339 340 340 341 342 343 345 344 350 343 0 23 350 343 343 352 42 136 351 10 320 342 46 1 31 13 17 38 25 2 1 317 244 259 228 210 204 197 144 214 226 200 236
333 332 332 332 335 337 337 338 340 341 346 343 351 349 49 7 327 324 342 43 79 344 330 340 348 15 28 15 50 15 24 30 44 48 301 340 253 222 218 210 197 209 200 169 189 201 227
331 330 330 331 332 335 336 336 340 340 346 343 349 347 9 13 345 320 355 33 205 314 304 332 327 29 24 350 26 30 356 104 58 28 25 332 277 346 221 212 194 197 212 184 107 336 154
332 331 331 332 332 334 336 339 339 339 345 346 344 340 329 342 340 317 87 226 196 2 322 326 94 1 343 334 50 52 305 14 63 28 7 301 298 262 281 220 228 199 158 202 216 199 224
332 333 335 335 334 336 341 340 338 340 345 349 345 349 342 329 318 220 166 221 164 39 30 32 223 260 248 31 151 177 259 333 25 4 350 313 232 296 314 216 214 197 197 196 174 181 223
330 334 338 338 335 339 340 338 339 343 345 353 352 346 348 355 49 29 10 321 316 274 309 335 255 209 229 193 240 226 205 202 1 18 316 253 282 265 257 298 308 225 175 170 204 212 253
328 334 337 335 336 338 339 339 341 347 346 351 339 305 360 14 56 345 323 303 293 270 259 178 235 205 203 220 249 222 181 182 95 310 102 312 262 306 292 279 212 177 199 198 205 124 210
329 332 333 336 336 338 338 337 340 344 345 347 341 348 338 51 103 70 329 273 301 320 290 347 239 235 190 216 229 248 240 196 139 261 227 206 250 227 250 322 2 309 329 224 185 198 192
331 333 334 335 335 336 334 335 334 338 346 349 340 327 2 319 359 338 225 270 294 347 353 339 330 8 280 255 249 232 241 189 160 183 169 253 253 222 251 260 271 265 275 285 254 208 204
333 336 333 332 332 332 333 332 333 335 344 353 327 342 353 292 287 318 302 320 318 325 298 284 334 314 296 215 220 234 241 228 211 187 221 243 258 257 272 243 233 248 253 255 253 202 216
337 334 331 330 332 331 330 329 329 330 331 337 310 291 272 263 282 257 245 264 282 299 275 212 270 300 280 261 267 270 256 259 216 164 199 217 256 332 267 323 44 202 346 321 52 47 360
337 332 330 329 331 329 328 326 324 318 300 282 295 283 254 266 234 240 272 291 292 290 287 287 293 250 289 301 315 278 259 240 219 208 205 185 221 234 267 291 169 146 24 12 77 47 19
333 331 330 330 329 330 329 329 321 311 286 277 284 276 231 267 263 277 280 296 301 298 280 278 281 287 312 297 288 288 321 236 206 205 208 207 184 281 282 308 107 19 352 333 320 41 15
333 333 331 331 332 334 334 332 328 311 288 277 274 273 258 272 251 262 297 294 298 309 300 267 314 333 335 359 308 313 269 259 148 183 156 126 209 249 319 72 134 327 326 312 202 41 356
335 335 336 338 338 338 334 332 329 321 303 279 281 286 258 237 282 292 257 275 277 288 272 296 327 327 342 11 290 311 253 268 74 107 184 186 252 222 226 230 70 340 323 332 64 15 333
339 342 343 341 339 337 337 336 334 337 327 285 304 309 273 247 302 307 312 294 285 246 289 319 348 346 318 13 345 333 309 348 114 47 65 49 299 16 301 61 67 338 331 77 281 336 357
346 346 343 343 342 341 345 352 345 350 315 244 340 351 337 253 285 329 11 30 339 322 265 333 321 299 320 356 5 321 335 332 1 56 11 48 18 335 359 79 275 343 66 48 34 16 0
Wind_Speed_850mb
37 39 40 40 42 43 45 47 47 50 52 54 55 54 54 53 51 49 42 42 45 44 61 52 42 29 21 15 27 14 16 4 65 67 70 66 62 35 16 19 16 32 28 18 44 40 36
38 39 40 41 44 46 48 51 55 58 59 58 57 57 54 53 53 50 41 40 45 57 43 42 39 27 13 8 7 11 32 7 56 73 74 72 49 51 26 8 32 12 38 42 39 42 24
39 39 41 42 45 48 49 51 54 57 61 65 65 62 57 54 54 49 40 42 50 57 34 36 51 30 20 34 12 6 15 18 44 70 80 78 25 49 17 3 51 34 21 17 25 36 10
36 37 38 40 42 45 48 53 57 61 64 67 71 70 63 57 55 52 41 45 51 42 30 38 52 18 18 16 7 12 16 20 34 66 63 66 48 61 12 9 14 6 11 6 18 18 22
36 38 41 42 44 48 53 57 60 63 64 65 70 71 67 63 57 52 43 49 50 29 28 51 23 18 16 18 42 25 38 30 36 48 65 29 59 13 18 4 9 5 7 11 12 24 12
37 39 42 43 45 48 52 56 60 60 61 65 68 73 68 66 60 48 47 54 43 21 36 21 24 13 22 54 53 33 33 21 39 37 41 20 27 9 4 9 21 11 9 9 13 10 26
36 37 38 41 47 50 51 52 56 62 66 67 66 69 71 66 58 36 46 43 40 8 49 16 35 12 37 54 29 31 22 6 31 32 14 28 11 38 57 40 8 8 9 11 10 16 15
35 37 41 44 45 48 53 57 59 62 66 70 71 70 72 69 50 22 31 34 30 22 25 15 17 10 49 44 13 57 42 8 19 15 13 10 36 42 15 14 25 17 11 12 21 11 11
36 39 41 42 44 48 53 58 62 65 69 73 74 73 73 67 31 23 21 33 33 43 6 21 11 35 59 33 8 24 71 23 10 20 27 26 11 30 24 27 26 32 30 16 18 10 7
38 40 42 42 45 50 54 58 62 68 70 71 70 72 70 50 11 26 20 34 46 19 8 11 18 24 49 12 14 39 50 14 10 18 29 29 41 27 39 35 30 35 27 28 26 3 8
39 40 42 43 46 50 54 59 63 65 69 70 69 72 56 22 20 26 33 41 25 0 5 9 10 24 27 29 25 37 41 17 5 19 11 34 26 35 40 44 36 27 15 19 20 6 6
39 41 43 45 48 52 57 61 65 65 69 70 67 63 37 21 21 29 38 44 3 9 8 3 9 17 20 37 16 30 32 31 10 12 29 32 31 31 50 29 32 10 11 11 2 4 21
42 43 45 47 50 54 59 63 66 68 69 69 66 48 26 17 25 34 43 19 8 5 11 9 6 13 9 17 14 22 27 33 15 19 14 19 48 30 19 38 25 21 18 5 11 12 29
45 46 47 49 51 55 60 64 67 70 69 68 62 26 14 23 22 31 38 10 7 5 2 6 9 10 10 19 8 16 12 7 27 11 6 10 27 43 28 26 35 30 24 12 18 14 25
44 46 47 50 52 54 58 63 66 68 67 69 60 21 8 19 28 25 21 7 8 3 7 9 11 5 6 3 4 16 10 4 12 27 12 11 17 25 44 30 36 18 42 17 10 3 5
45 46 48 50 52 53 56 60 63 65 65 64 65 30 0 20 29 18 8 10 5 6 8 4 2 4 8 8 7 10 5 4 6 22 28 5 17 18 24 52 33 29 20 23 7 18 19
45 45 46 49 51 52 54 56 59 63 64 59 50 17 13 37 38 3 7 11 5 2 11 3 3 5 6 3 5 6 8 9 12 16 13 12 11 23 15 23 57 22 22 16 13 8 21
42 43 44 47 50 51 52 55 58 59 61 56 33 7 23 32 13 7 5 13 9 4 7 4 3 9 4 6 7 9 10 7 11 12 6 6 10 14 20 24 34 48 15 15 26 26 2
42 44 44 46 50 51 51 53 53 50 51 52 34 15 19 20 7 8 16 11 7 5 7 4 5 9 6 9 5 9 12 10 10 5 0 3 5 11 14 6 10 6 35 18 13 11 21
42 43 44 47 49 50 51 50 48 44 39 40 14 7 11 16 16 6 8 9 8 18 7 10 10 8 4 8 12 9 9 9 12 14 22 14 7 14 10 3 11 15 18 18 21 14 16
41 42 46 47 48 50 50 50 45 41 34 27 6 2 4 8 4 5 7 9 14 11 13 19 7 7 7 10 9 12 13 9 14 11 4 6 12 14 32 41 36 36 37 33 15 21 28
39 44 48 49 51 51 50 48 44 36 31 15 8 7 4 16 12 10 6 4 15 11 7 8 9 32 25 15 18 14 14 11 15 18 7 9 8 9 14 25 36 18 23 27 31 15 12
40 44 49 53 54 53 50 46 38 26 20 11 7 14 9 8 5 4 4 6 13 26 15 16 16 26 18 18 29 38 37 42 19 19 16 10 6 6 11 8 2 8 19 17 9 25 6
43 48 53 55 55 53 50 42 32 20 17 21 19 21 6 6 8 6 13 34 27 19 16 31 39 10 19 44 60 44 46 44 37 34 33 8 3 6 9 10 13 15 21 18 42 38 37
47 52 57 58 55 48 42 34 28 18 18 23 26 23 9 6 12 16 22 19 31 29 16 24 38 26 44 30 8 7 3 6 26 34 30 19 4 8 4 6 13 10 23 21 12 31 39
52 57 59 56 46 39 35 32 30 19 17 20 25 23 22 7 7 15 14 21 10 6 9 12 28 30 13 4 5 5 5 3 11 8 16 9 16 6 7 1 5 11 40 63 21 27 38
57 58 52 43 39 38 38 36 31 19 13 16 21 15 17 10 17 15 8 10 7 7 6 13 21 15 16 4 5 5 4 7 5 9 10 4 4 16 17 1 4 24 45 29 14 5 47
54 48 44 44 44 43 40 34 22 12 8 9 12 14 16 9 20 19 25 23 10 9 4 14 13 6 9 10 6 6 5 5 5 6 6 8 6 3 2 9 4 39 18 15 5 21 42
44 44 45 45 46 43 36 26 16 7 2 0 3 11 13 22 16 23 22 19 17 19 13 11 13 7 8 7 7 6 5 8 17 7 12 10 7 8 13 4 13 8 20 23 32 32 52
Wind_Direction_850mb
35 32 30 27 25 23 21 18 15 13 9 5 1 358 357 355 353 353 352 351 341 340 336 323 317 318 309 262 256 259 257 204 179 183 187 180 179 186 186 198 220 234 256 260 241 255 242
34 31 28 25 23 21 19 18 16 13 9 5 1 357 356 354 349 349 350 346 344 344 349 2 338 314 286 255 283 259 219 252 193 185 186 187 190 183 207 225 196 200 245 257 269 266 235
30 27 26 23 20 18 16 14 10 8 6 5 5 360 357 354 346 346 346 343 341 337 332 337 344 312 269 264 228 143 191 227 201 194 190 196 190 183 195 105 254 257 278 297 270 261 235
28 25 24 22 18 14 9 6 4 2 2 3 1 0 358 355 346 340 340 343 342 334 327 331 335 319 267 341 326 268 269 223 204 200 205 202 194 200 198 292 334 180 158 204 248 210 207
24 23 21 18 14 9 6 2 359 358 356 356 356 354 357 357 349 339 338 344 341 337 340 336 354 326 314 13 5 320 333 246 213 210 205 221 203 211 224 232 352 296 210 183 278 199 180
21 19 18 14 10 6 2 359 357 356 354 352 353 349 352 355 350 340 339 342 342 321 344 357 0 328 356 324 337 318 357 182 190 195 206 215 190 173 156 152 214 202 204 212 216 218 196
18 16 12 9 6 2 358 358 359 359 356 352 351 348 346 351 350 340 343 7 16 352 336 303 313 267 335 346 5 1 343 232 190 163 166 201 188 203 209 209 188 187 203 215 250 198 174
13 10 7 4 0 359 358 359 359 359 355 351 350 346 339 347 347 344 353 46 29 342 308 357 40 306 2 355 339 14 1 340 197 191 156 147 218 221 212 187 216 244 245 250 286 212 178
5 2 360 360 359 357 357 356 355 357 356 350 349 345 336 344 345 355 19 14 357 341 257 293 5 21 5 341 18 17 12 337 269 217 194 206 228 199 205 204 200 221 223 221 235 57 215
358 357 355 355 355 355 354 352 352 353 353 349 349 344 338 348 15 351 21 356 343 337 63 289 2 21 5 18 358 9 358 354 312 235 217 227 235 208 193 217 197 220 212 225 244 134 218
352 351 350 350 349 348 348 348 349 349 348 347 350 344 343 358 17 5 347 347 334 59 327 19 20 7 37 48 299 346 8 341 231 276 288 221 200 221 211 210 199 230 167 204 237 200 298
344 344 345 344 343 342 344 344 345 345 345 346 350 343 348 357 348 352 352 340 127 47 242 67 64 351 20 27 22 348 11 9 356 307 266 249 267 211 225 221 216 164 169 194 129 130 253
336 337 338 338 339 340 340 341 342 343 345 344 350 343 0 23 350 343 343 352 42 136 351 10 320 342 46 1 31 13 17 38 25 2 1 317 244 259 228 210 204 197 144 214 226 200 236
333 332 332 332 335 337 337 338 340 341 346 343 351 349 49 7 327 324 342 43 79 344 330 340 348 15 28 15 50 15 24 30 44 48 301 340 253 222 218 210 197 209 200 169 189 201 227
331 330 330 331 332 335 336 336 340 340 346 343 349 347 9 13 345 320 355 33 205 314 304 332 327 29 24 350 26 30 356 104 58 28 25 332 277 346 221 212 194 197 212 184 107 336 154
332 331 331 332 332 334 336 339 339 339 345 346 344 340 329 342 340 317 87 226 196 2 322 326 94 1 343 334 50 52 305 14 63 28 7 301 298 262 281 220 228 199 158 202 216 199 224
332 333 335 335 334 336 341 340 338 340 345 349 345 349 342 329 318 220 166 221 164 39 30 32 223 260 248 31 151 177 259 333 25 4 350 313 232 296 314 216 214 197 197 196 174 181 223
330 334 338 338 335 339 340 338 339 343 345 353 352 346 348 355 49 29 10 321 316 274 309 335 255 209 229 193 240 226 205 202 1 18 316 253 282 265 257 298 308 225 175 170 204 212 253
328 334 337 335 336 338 339 339 341 347 346 351 339 305 360 14 56 345 323 303 293 270 259 178 235 205 203 220 249 222 181 182 95 310 102 312 262 306 292 279 212 177 199 198 205 124 210
329 332 333 336 336 338 338 337 340 344 345 347 341 348 338 51 103 70 329 273 301 320 290 347 239 235 190 216 229 248 240 196 139 261 227 206 250 227 250 322 2 309 329 224 185 198 192
331 333 334 335 335 336 334 335 334 338 346 349 340 327 2 319 359 338 225 270 294 347 353 339 330 8 280 255 249 232 241 189 160 183 169 253 253 222 251 260 271 265 275 285 254 208 204
333 336 333 332 332 332 333 332 333 335 344 353 327 342 353 292 287 318 302 320 318 325 298 284 334 314 296 215 220 234 241 228 211 187 221 243 258 257 272 243 233 248 253 255 253 202 216
337 334 331 330 332 331 330 329 329 330 331 337 310 291 272 263 282 257 245 264 282 299 275 212 270 300 280 261 267 270 256 259 216 164 199 217 256 332 267 323 44 202 346 321 52 47 360
337 332 330 329 331 329 328 326 324 318 300 282 295 283 254 266 234 240 272 291 292 290 287 287 293 250 289 301 315 278 259 240 219 208 205 185 221 234 267 291 169 146 24 12 77 47 19
333 331 330 330 329 330 329 329 321 311 286 277 284 276 231 267 263 277 280 296 301 298 280 278 281 287 312 297 288 288 321 236 206 205 208 207 184 281 282 308 107 19 352 333 320 41 15
333 333 331 331 332 334 334 332 328 311 288 277 274 273 258 272 251 262 297 294 298 309 300 267 314 333 335 359 308 313 269 259 148 183 156 126 209 249 319 72 134 327 326 312 202 41 356
335 335 336 338 338 338 334 332 329 321 303 279 281 286 258 237 282 292 257 275 277 288 272 296 327 327 342 11 290 311 253 268 74 107 184 186 252 222 226 230 70 340 323 332 64 15 333
339 342 343 341 339 337 337 336 334 337 327 285 304 309 273 247 302 307 312 294 285 246 289 319 348 346 318 13 345 333 309 348 114 47 65 49 299 16 301 61 67 338 331 77 281 336 357
346 346 343 343 342 341 345 352 345 350 315 244 340 351 337 253 285 329 11 30 339 322 265 333 321 299 320 356 5 321 335 332 1 56 11 48 18 335 359 79 275 343 66 48 34 16 0